Regional & State Weather Roundups


259 
ASUS45 KREV 112210
RWRNV 
NEVADA REGIONAL WEATHER ROUNDUP
NATIONAL WEATHER SERVICE RENO NV
200 PM PST MON DEC 11 2017
NOTE: "FAIR" INDICATES FEW OR NO CLOUDS BELOW 12,000 FEET WITH NO
SIGNIFICANT WEATHER AND/OR OBSTRUCTIONS TO VISIBILITY.
NVZ001-003-004-112300-
WESTERN NEVADA
  
CITY           SKY/WX    TMP DP  RH WIND       PRES   REMARKS
RENO           PTSUNNY   45  17  32 CALM      30.49F                  
CARSON CITY    FAIR      45  18  33 E10       30.50F                  
MINDEN         FAIR      41  16  36 CALM      30.50F                  
PYRAMID LAKE     N/A     39 N/A N/A NE3         N/A                   
FALLON         MOSUNNY   44  15  31 N3        30.50F                  
LOVELOCK       SUNNY     40  20  44 CALM      30.51F                  
HAWTHORNE      SUNNY     39  19  45 VRB3      30.50F                  
$$
NVZ002-CAZ072-073-112300-
NORTHERN AND CENTRAL SIERRA
  
CITY           SKY/WX    TMP DP  RH WIND       PRES   REMARKS
S. LAKE TAHOE  MOSUNNY   48  22  35 VRB3      30.46F                  
TRUCKEE        MOSUNNY   45  19  36 CALM      30.47F                  
SQUAW VLY 8000   N/A     45   9  23 E1          N/A                   
SUSANVILLE     SUNNY     43  25  49 CALM      30.52F                  
BLUE CANYON    SUNNY     60  28  29 CALM      30.40F                  
MAMMOTH LAKES  FAIR      55   3  12 SE3       30.47F                  
$$
NVZ030-031-036-112300-
NORTHERN NEVADA
  
CITY           SKY/WX    TMP DP  RH WIND       PRES   REMARKS
ELKO           SUNNY     40  19  43 CALM      30.50F                  
WINNEMUCCA     SUNNY     44  19  36 CALM      30.50F                  
WENDOVER       SUNNY     30  19  63 SE3       30.57F                  
$$
NVZ035-037-112300-
CENTRAL NEVADA
  
CITY           SKY/WX    TMP DP  RH WIND       PRES   REMARKS
ELY            SUNNY     50 -10   8 N7        30.48F                  
EUREKA           N/A     45   8  22 NE3       30.48F                  
$$
NVZ013-014-112300-
SOUTH CENTRAL NEVADA
  
CITY           SKY/WX    TMP DP  RH WIND       PRES   REMARKS
TONOPAH        SUNNY     54   0  11 VRB3      30.44F                  
$$
NVZ017-020-022-112300-
SOUTHERN NEVADA
  
CITY           SKY/WX    TMP DP  RH WIND       PRES   REMARKS
LAS VEGAS      MOSUNNY   65   0   7 CALM      30.32F                  
N. LAS VEGAS   SUNNY     64  -6   6 SE3       30.32F                  
NELLIS AFB     SUNNY     64  -2   7 CALM      30.31F                  
HENDERSON      SUNNY     63  -1   7 VRB3      30.35F                  
MERCURY        SUNNY     65 -10   5 SE14      30.33F                  
$$